[Date Prev][Date Next][Thread Prev][Thread Next] - [Date Index][Thread Index][Author Index]
2 Line ISS Keps 10-28
- Subject: [sarex] 2 Line ISS Keps 10-28
- From: "Dave Larsen Ph.D." <doc@xxxxxxxxxxx>
- Date: Mon, 28 Oct 2002 00:38:58 -0800
ISS
1 25544U 98067A 02301.11255787 .00026691 00000-0 36079-3 0 3099
2 25544 51.6354 105.4797 0015090 78.8398 79.8290 15.57422014224708
----
Via the sarex mailing list at AMSAT.ORG courtesy of AMSAT-NA.
To unsubscribe, send "unsubscribe sarex" to Majordomo@amsat.org
AMSAT Home